| time (UTC) | temp F | wind direction | speed knots | gust knots | rain 1hr in | rain 24hr in | rain mn in | humidity % | barometer mb |
| 20260507114939 | 52 | 38 | 0.0 | 0.0 | 0.00 | 0.41 | 0.21 | 87 | 1013.2 |
| 20260507113948 | 52 | 38 | 0.0 | 0.9 | 0.00 | 0.41 | 0.21 | 88 | 1013.0 |
| 20260507112918 | 52 | 38 | 0.0 | 0.0 | 0.00 | 0.41 | 0.21 | 89 | 1013.0 |
| 20260507110742 | 52 | 38 | 0.0 | 0.0 | 0.00 | 0.41 | 0.21 | 90 | 1013.1 |
| 20260507105745 | 52 | 38 | 0.0 | 0.0 | 0.00 | 0.41 | 0.21 | 91 | 1013.0 |
| 20260507104739 | 51 | 38 | 0.0 | 0.0 | 0.00 | 0.41 | 0.21 | 92 | 1012.9 |
| 20260507102555 | 52 | 38 | 0.0 | 0.0 | 0.00 | 0.41 | 0.21 | 92 | 1012.5 |
| 20260507101525 | 52 | 38 | 0.0 | 0.0 | 0.00 | 0.41 | 0.21 | 92 | 1012.4 |
| 20260507095437 | 52 | 38 | 0.0 | 0.0 | 0.00 | 0.41 | 0.21 | 91 | 1012.3 |
| 20260507094405 | 52 | 38 | 0.0 | 0.0 | 0.00 | 0.41 | 0.21 | 91 | 1012.3 |
| 20260507093351 | 52 | 38 | 0.0 | 0.0 | 0.00 | 0.41 | 0.21 | 90 | 1012.1 |
| 20260507091159 | 52 | 38 | 0.0 | 0.0 | 0.00 | 0.41 | 0.21 | 89 | 1012.4 |
| 20260507090154 | 52 | 38 | 0.0 | 0.0 | 0.00 | 0.41 | 0.21 | 89 | 1012.4 |
| 20260507085205 | 52 | 38 | 0.0 | 0.0 | 0.00 | 0.41 | 0.21 | 89 | 1012.1 |
| 20260507084228 | 52 | 38 | 0.0 | 0.0 | 0.00 | 0.41 | 0.21 | 89 | 1011.9 |
| 20260507083241 | 52 | 38 | 0.0 | 0.0 | 0.00 | 0.41 | 0.21 | 90 | 1011.9 |
| 20260507082253 | 52 | 38 | 0.0 | 0.0 | 0.00 | 0.41 | 0.21 | 90 | 1011.7 |
| 20260507081302 | 52 | 38 | 0.0 | 0.0 | 0.00 | 0.41 | 0.21 | 89 | 1011.4 |
| 20260507080323 | 52 | 38 | 0.0 | 0.0 | 0.00 | 0.41 | 0.21 | 88 | 1011.5 |
| 20260507075344 | 53 | 38 | 0.0 | 0.0 | 0.00 | 0.41 | 0.21 | 86 | 1011.3 |
| 20260507073229 | 53 | 38 | 0.9 | 4.3 | 0.00 | 0.41 | 0.21 | 86 | 1011.1 |
| 20260507072237 | 53 | 28 | 0.0 | 3.5 | 0.00 | 0.41 | 0.21 | 87 | 1011.2 |
| 20260507071252 | 53 | 30 | 0.0 | 2.6 | 0.00 | 0.41 | 0.21 | 88 | 1011.0 |
| 20260507070228 | 54 | 31 | 0.0 | 2.6 | 0.00 | 0.41 | 0.21 | 89 | 1011.0 |
| 20260507065211 | 54 | 32 | 0.0 | 1.7 | 0.00 | 0.41 | 0.21 | 89 | 1011.3 |
| 20260507064235 | 54 | 28 | 0.0 | 0.9 | 0.00 | 0.41 | 0.21 | 90 | 1011.3 |
| 20260507063249 | 54 | 27 | 0.0 | 0.9 | 0.00 | 0.41 | 0.21 | 90 | 1011.1 |
| 20260507062224 | 54 | 34 | 0.0 | 1.7 | 0.00 | 0.41 | 0.21 | 90 | 1010.9 |
| 20260507061159 | 54 | 36 | 0.0 | 0.9 | 0.00 | 0.41 | 0.21 | 90 | 1011.0 |
| 20260507060134 | 54 | 36 | 0.0 | 0.0 | 0.00 | 0.41 | 0.21 | 90 | 1011.3 |
| 20260507055146 | 55 | 36 | 0.0 | 0.9 | 0.00 | 0.41 | 0.21 | 90 | 1011.2 |
| 20260507054147 | 55 | 36 | 0.0 | 3.5 | 0.00 | 0.41 | 0.21 | 91 | 1011.3 |
| 20260507053122 | 55 | 32 | 0.0 | 0.0 | 0.04 | 0.41 | 0.21 | 91 | 1011.3 |
| 20260507052128 | 55 | 32 | 0.0 | 0.9 | 0.13 | 0.41 | 0.21 | 90 | 1011.4 |
| 20260507051106 | 56 | 32 | 0.0 | 0.9 | 0.55 | 0.37 | 0.19 | 90 | 1011.3 |
| 20260507050124 | 56 | 32 | 0.0 | 0.9 | 0.55 | 0.32 | 0.13 | 88 | 1011.5 |
| 20260507045115 | 57 | 32 | 0.0 | 1.7 | 0.51 | 0.22 | 0.04 | 84 | 1011.2 |
| 20260507044126 | 58 | 31 | 0.0 | 1.7 | 0.00 | 0.19 | 0.00 | 79 | 1011.1 |
| 20260507043128 | 59 | 32 | 0.0 | 2.6 | 0.00 | 0.19 | 0.00 | 79 | 1011.0 |
| 20260507042104 | 60 | 5 | 0.0 | 2.6 | 0.00 | 0.19 | 0.00 | 78 | 1011.2 |
| 20260507041035 | 60 | 33 | 0.0 | 0.9 | 0.00 | 0.19 | 0.00 | 78 | 1011.2 |
| 20260507040052 | 61 | 33 | 0.0 | 0.0 | 0.00 | 0.19 | 0.00 | 75 | 1010.6 |
| 20260507035031 | 61 | 33 | 0.0 | 0.9 | 0.00 | 0.19 | 0.20 | 74 | 1010.4 |
| 20260507034002 | 61 | 33 | 0.0 | 0.0 | 0.00 | 0.19 | 0.20 | 74 | 1010.1 |
| 20260507033004 | 62 | 33 | 0.0 | 0.9 | 0.00 | 0.19 | 0.20 | 73 | 1010.6 |
| 20260507031932 | 62 | 33 | 0.0 | 0.9 | 0.00 | 0.19 | 0.20 | 73 | 1010.5 |
| 20260507030907 | 62 | 30 | 0.0 | 0.9 | 0.00 | 0.19 | 0.20 | 74 | 1010.3 |
| 20260507025833 | 62 | 51 | 0.0 | 0.0 | 0.00 | 0.19 | 0.20 | 74 | 1010.3 |
| 20260507023705 | 64 | 65 | 0.0 | 2.6 | 0.00 | 0.19 | 0.20 | 79 | 1010.0 |
| 20260507022645 | 64 | 43 | 0.0 | 0.0 | 0.00 | 0.19 | 0.20 | 81 | 1009.8 |
| 20260507021615 | 64 | 346 | 0.0 | 1.7 | 0.00 | 0.19 | 0.20 | 80 | 1009.4 |
| 20260507020623 | 64 | 65 | 0.0 | 1.7 | 0.00 | 0.19 | 0.20 | 82 | 1009.6 |
| 20260507015620 | 65 | 26 | 0.0 | 0.0 | 0.00 | 0.19 | 0.20 | 81 | 1009.8 |
| 20260507014607 | 65 | 26 | 0.0 | 0.0 | 0.00 | 0.19 | 0.20 | 79 | 1009.5 |
| 20260507013630 | 66 | 107 | 0.0 | 0.0 | 0.00 | 0.19 | 0.20 | 80 | 1009.9 |
| 20260507012633 | 66 | 208 | 0.0 | 0.0 | 0.00 | 0.19 | 0.20 | 80 | 1009.7 |
| 20260507011635 | 65 | 102 | 0.0 | 0.0 | 0.00 | 0.19 | 0.20 | 84 | 1009.8 |
| 20260507010658 | 65 | 103 | 0.0 | 0.0 | 0.00 | 0.19 | 0.20 | 86 | 1009.8 |
| 20260507005626 | 65 | 103 | 0.0 | 0.0 | 0.00 | 0.19 | 0.20 | 85 | 1009.6 |
| 20260507004606 | 65 | 103 | 0.0 | 0.0 | 0.00 | 0.19 | 0.20 | 84 | 1009.4 |
| 20260507003559 | 65 | 103 | 0.0 | 0.0 | 0.00 | 0.19 | 0.20 | 85 | 1009.4 |
| 20260507002534 | 65 | 103 | 0.0 | 0.0 | 0.00 | 0.19 | 0.20 | 84 | 1009.4 |
| 20260507001529 | 65 | 103 | 0.0 | 0.0 | 0.00 | 0.19 | 0.20 | 84 | 1009.1 |
| 20260506233137 | 67 | 112 | 0.0 | 0.0 | 0.00 | 0.19 | 0.20 | 81 | 1008.8 |
| 20260506231007 | 67 | 148 | 0.0 | 1.7 | 0.00 | 0.19 | 0.20 | 80 | 1008.5 |
| 20260506225958 | 67 | 102 | 0.0 | 1.7 | 0.00 | 0.19 | 0.20 | 78 | 1008.5 |
| 20260506223821 | 67 | 126 | 0.0 | 0.0 | 0.00 | 0.19 | 0.20 | 79 | 1008.3 |
| 20260506222845 | 68 | 126 | 0.0 | 0.0 | 0.00 | 0.19 | 0.20 | 78 | 1008.5 |
| 20260506221850 | 68 | 126 | 0.0 | 0.0 | 0.00 | 0.19 | 0.20 | 76 | 1008.5 |
| 20260506220854 | 68 | 159 | 0.0 | 0.9 | 0.00 | 0.19 | 0.20 | 77 | 1008.6 |
| 20260506215828 | 68 | 96 | 0.0 | 0.9 | 0.00 | 0.19 | 0.20 | 78 | 1008.4 |
| 20260506214814 | 67 | 161 | 0.0 | 0.9 | 0.00 | 0.19 | 0.20 | 80 | 1008.5 |
| 20260506213739 | 68 | 80 | 0.0 | 3.5 | 0.00 | 0.19 | 0.20 | 78 | 1008.4 |
| 20260506210409 | 68 | 148 | 0.0 | 5.2 | 0.00 | 0.19 | 0.20 | 77 | 1008.1 |
| 20260506205334 | 68 | 164 | 0.0 | 0.0 | 0.00 | 0.19 | 0.20 | 78 | 1008.0 |
| 20260506204315 | 67 | 117 | 0.0 | 6.1 | 0.00 | 0.19 | 0.20 | 77 | 1007.7 |
| 20260506202146 | 68 | 134 | 0.9 | 6.1 | 0.00 | 0.19 | 0.20 | 75 | 1008.1 |
| 20260506201135 | 69 | 148 | 0.0 | 7.0 | 0.00 | 0.19 | 0.20 | 74 | 1007.9 |
| 20260506200142 | 69 | 155 | 0.9 | 7.0 | 0.00 | 0.19 | 0.20 | 73 | 1007.9 |
| 20260506194016 | 69 | 146 | 1.7 | 7.8 | 0.00 | 0.19 | 0.20 | 72 | 1008.0 |
| 20260506193039 | 69 | 165 | 0.9 | 7.8 | 0.00 | 0.19 | 0.20 | 75 | 1007.9 |
| 20260506192045 | 68 | 128 | 0.9 | 7.0 | 0.00 | 0.19 | 0.20 | 74 | 1008.0 |
| 20260506191019 | 68 | 181 | 0.9 | 6.1 | 0.00 | 0.19 | 0.20 | 74 | 1008.1 |
| 20260506185948 | 68 | 153 | 0.0 | 3.5 | 0.00 | 0.19 | 0.20 | 79 | 1008.2 |
| 20260506184927 | 67 | 101 | 0.0 | 7.0 | 0.00 | 0.19 | 0.20 | 79 | 1008.5 |
| 20260506183940 | 66 | 78 | 0.9 | 7.0 | 0.00 | 0.19 | 0.20 | 78 | 1008.6 |
| 20260506181747 | 65 | 194 | 0.9 | 7.0 | 0.00 | 0.19 | 0.20 | 83 | 1008.6 |
| 20260506180730 | 64 | 155 | 1.7 | 9.6 | 0.00 | 0.19 | 0.20 | 81 | 1008.8 |
| 20260506174603 | 64 | 192 | 2.6 | 9.6 | 0.00 | 0.19 | 0.20 | 83 | 1009.0 |
| 20260506172357 | 63 | 247 | 1.7 | 7.0 | 0.00 | 0.19 | 0.20 | 86 | 1008.9 |
| 20260506171342 | 63 | 140 | 1.7 | 7.0 | 0.00 | 0.19 | 0.20 | 87 | 1009.1 |
| 20260506165238 | 62 | 169 | 2.6 | 10.4 | 0.00 | 0.19 | 0.20 | 88 | 1009.1 |
| 20260506164235 | 61 | 147 | 2.6 | 9.6 | 0.00 | 0.19 | 0.20 | 88 | 1009.3 |
| 20260506163232 | 61 | 117 | 1.7 | 8.7 | 0.00 | 0.19 | 0.20 | 90 | 1009.3 |
| 20260506161040 | 61 | 144 | 1.7 | 7.8 | 0.00 | 0.19 | 0.20 | 90 | 1009.4 |
| 20260506160052 | 60 | 183 | 2.6 | 12.2 | 0.00 | 0.19 | 0.20 | 91 | 1009.4 |
| 20260506155028 | 60 | 74 | 2.6 | 12.2 | 0.00 | 0.19 | 0.20 | 91 | 1009.4 |
| 20260506154035 | 60 | 167 | 1.7 | 8.7 | 0.00 | 0.19 | 0.20 | 91 | 1009.6 |
| 20260506153036 | 60 | 130 | 0.9 | 9.6 | 0.00 | 0.19 | 0.20 | 91 | 1009.6 |
| 20260506152045 | 60 | 181 | 1.7 | 9.6 | 0.00 | 0.19 | 0.19 | 91 | 1009.5 |
| 20260506151043 | 60 | 128 | 1.7 | 10.4 | 0.00 | 0.19 | 0.19 | 91 | 1009.9 |
| 20260506150036 | 59 | 85 | 1.7 | 10.4 | 0.05 | 0.19 | 0.19 | 91 | 1010.1 |
| 20260506145027 | 60 | 63 | 0.9 | 6.1 | 0.05 | 0.18 | 0.19 | 91 | 1010.5 |
| 20260506144044 | 59 | 155 | 1.7 | 8.7 | 0.13 | 0.18 | 0.18 | 91 | 1010.3 |
| 20260506141956 | 60 | 175 | 0.9 | 13.9 | 0.09 | 0.14 | 0.15 | 90 | 1010.2 |
| 20260506140953 | 60 | 253 | 0.9 | 5.2 | 0.09 | 0.13 | 0.13 | 90 | 1010.1 |
| 20260506135959 | 60 | 185 | 0.0 | 4.3 | 0.13 | 0.12 | 0.12 | 90 | 1010.3 |
| 20260506134954 | 60 | 128 | 0.0 | 5.2 | 0.18 | 0.09 | 0.10 | 89 | 1010.4 |
| 20260506134000 | 60 | 151 | 0.9 | 7.0 | 0.16 | 0.06 | 0.06 | 89 | 1010.4 |
| 20260506132940 | 60 | 139 | 0.9 | 7.0 | 0.05 | 0.04 | 0.05 | 88 | 1010.9 |
| 20260506131954 | 60 | 153 | 0.0 | 4.3 | 0.04 | 0.04 | 0.04 | 88 | 1010.6 |
| 20260506131015 | 60 | 163 | 0.0 | 0.0 | 0.04 | 0.03 | 0.03 | 87 | 1010.5 |
| 20260506125957 | 61 | 132 | 0.0 | 3.5 | 0.04 | 0.03 | 0.03 | 86 | 1010.1 |
| 20260506124933 | 61 | 157 | 0.0 | 1.7 | 0.06 | 0.02 | 0.02 | 86 | 1010.1 |
| 20260506123918 | 61 | 140 | 0.0 | 4.3 | 0.00 | 0.01 | 0.01 | 84 | 1010.0 |
| 20260506122920 | 62 | 128 | 0.9 | 4.3 | 0.00 | 0.00 | 0.00 | 80 | 1010.2 |
| 20260506121937 | 62 | 145 | 0.9 | 4.3 | 0.00 | 0.00 | 0.00 | 79 | 1010.4 |
| 20260506120908 | 63 | 144 | 0.9 | 5.2 | 0.00 | 0.00 | 0.00 | 77 | 1010.5 |
| 20260506115845 | 63 | 161 | 0.9 | 7.0 | 0.00 | 0.00 | 0.00 | 75 | 1010.5 |